Temperature
23 25 24 24 24 24 24 23 23 23 23 22 22 22 22 21 20 20 20 20 19 19 18 17 17 17 17 17 16 16 16 16 16 16 16 15 15 15 15 15 15 15 15 15
24 24 24 24 23 23 23 23 23 23 22 22 23 23 22 21 20 20 20 20 19 19 18 17 17 17 17 17 16 16 16 16 16 16 15 15 15 15 15 15 15 15 15 15
24 24 23 23 23 23 23 23 23 23 22 23 23 23 23 22 20 19 19 19 19 18 18 17 17 17 16 16 16 16 16 16 16 15 15 15 15 15 15 15 15 15 15 15
24 23 23 23 23 23 23 23 23 22 23 23 23 23 23 23 21 20 19 19 18 18 17 17 17 16 16 16 16 16 16 16 15 15 15 15 15 15 15 15 15 15 15 14
23 23 23 23 23 23 23 22 23 22 23 23 23 23 23 22 22 21 20 19 18 17 17 17 16 16 16 16 16 16 16 15 15 15 15 15 15 15 15 15 14 14 14 14
23 23 23 23 23 22 22 22 22 22 23 22 23 22 22 23 22 22 21 19 18 17 17 16 16 16 16 16 16 16 15 15 15 15 15 15 15 15 15 14 14 14 14 14
23 23 23 22 23 22 23 23 22 22 22 22 22 22 22 22 22 21 20 19 18 17 17 16 16 16 16 16 16 15 15 15 15 15 15 15 15 15 14 14 14 14 14 14
22 22 22 22 23 22 23 23 22 21 22 22 22 22 22 21 20 19 19 19 18 17 17 16 16 16 15 15 15 15 15 15 15 15 15 15 14 14 14 14 14 14 14 14
23 22 22 22 22 23 22 22 22 22 22 21 22 22 22 21 20 20 19 19 18 17 17 16 16 16 15 15 15 15 15 15 15 15 15 14 14 14 14 14 14 14 14 14
23 22 22 21 21 21 22 22 22 21 21 21 21 22 22 21 21 20 20 19 18 17 16 16 16 15 15 15 15 15 15 15 15 15 14 14 14 14 14 14 13 13 13 13
22 22 22 21 21 21 21 21 21 21 21 21 21 21 22 21 21 20 20 18 17 17 16 16 15 15 15 15 15 15 15 15 15 14 14 14 14 14 14 13 13 13 13 13
21 22 22 22 21 20 21 21 21 21 21 20 20 21 22 21 20 20 19 18 17 16 16 15 15 15 15 15 15 14 14 14 14 14 14 14 14 14 13 13 13 13 13 13
21 21 21 21 21 20 20 20 21 21 21 20 20 21 21 21 20 19 18 18 17 16 15 15 15 14 14 14 14 14 14 14 14 14 14 14 13 13 13 13 13 13 13 13
19 21 21 21 21 21 20 20 20 20 20 20 20 21 21 20 20 19 18 17 16 16 15 15 14 14 14 14 14 14 14 14 14 14 13 13 13 13 13 13 13 13 13 13
20 20 20 20 20 20 19 19 19 19 20 20 20 20 20 20 19 18 17 16 16 15 15 14 14 14 14 14 14 14 13 13 13 13 13 13 13 13 13 13 13 13 13 13
19 20 19 19 19 19 19 19 19 19 19 19 19 19 20 19 18 17 17 16 15 15 14 14 14 14 14 14 14 13 13 13 13 13 13 13 12 12 12 12 12 12 12 12
19 19 19 19 19 18 19 19 19 19 19 19 19 19 19 18 17 17 16 15 15 14 14 14 14 13 14 13 13 13 13 13 12 12 12 12 12 12 12 12 12 12 12 12
18 18 18 18 18 18 19 19 18 18 18 18 18 18 18 17 16 15 15 15 14 13 13 13 13 13 13 13 13 13 13 12 12 12 12 12 12 11 12 12 11 11 12 12
17 17 18 18 18 18 18 18 17 17 18 18 17 17 16 15 15 16 14 14 14 13 13 13 13 12 12 12 12 12 12 12 12 11 11 11 11 11 11 11 11 11 11 11
15 17 17 17 17 17 18 17 16 17 17 17 16 16 15 15 17 17 14 13 13 12 12 12 12 12 12 12 12 12 12 12 11 11 11 11 11 11 11 11 10 10 10 11
16 16 16 16 17 18 17 15 15 16 17 16 15 15 14 15 15 14 13 12 12 12 12 12 12 12 12 11 11 11 11 11 11 11 11 11 11 10 10 10 10 10 10 10
17 16 16 16 16 17 16 15 16 17 15 14 14 14 14 13 13 12 12 12 11 11 11 11 11 11 11 11 11 11 10 10 10 10 10 10 10 10 10 10 10 10 9 9
16 17 17 17 17 16 14 15 14 14 14 14 13 13 12 12 12 12 11 11 11 11 11 11 10 10 10 10 10 10 10 10 10 10 10 10 10 10 10 9 9 9 9 9
15 14 15 15 16 15 14 13 13 13 13 12 12 12 12 12 11 11 11 11 10 10 10 10 10 10 10 10 10 10 10 10 9 9 10 9 9 9 9 9 9 9 8 8
15 14 15 15 15 14 13 13 12 12 12 12 12 11 11 11 11 11 10 10 10 10 10 10 10 9 9 9 9 9 9 9 9 9 9 9 9 9 9 9 8 8 8 8
14 14 15 15 15 15 14 13 12 12 11 11 11 11 11 11 11 10 10 10 10 9 9 9 9 9 9 9 9 9 9 9 9 9 9 9 8 8 8 8 8 8 8 8
Wind_Speed
3 5 4 2 3 3 2 3 2 1 0 2 3 3 2 2 4 4 4 4 4 3 2 2 2 2 3 2 2 3 3 3 3 2 2 2 2 2 2 2 3 3 3 3
6 5 2 1 2 3 4 3 2 0 1 2 3 3 1 1 3 3 4 4 4 3 3 3 3 3 2 2 2 3 3 3 3 2 2 2 2 2 3 2 3 2 2 2
5 1 2 4 4 4 4 4 3 3 2 3 4 3 3 3 3 3 3 3 3 3 3 3 3 3 3 2 3 3 3 3 3 4 3 3 3 3 3 2 2 2 2 2
3 2 3 4 3 4 4 2 3 4 5 3 4 3 2 3 3 3 4 4 3 3 2 2 2 3 3 3 3 3 3 3 3 4 4 4 3 3 3 2 2 2 2 2
3 3 3 3 3 4 2 1 3 5 6 6 4 5 2 3 3 2 3 4 4 3 3 2 3 2 2 2 3 3 3 3 3 3 3 4 3 2 2 2 3 2 2 1
3 2 2 2 1 2 2 3 3 5 6 6 3 5 2 2 1 1 3 4 4 3 3 3 2 2 2 2 3 3 3 3 3 3 4 4 4 3 3 3 3 2 2 1
4 4 2 2 3 4 4 4 4 4 5 3 1 4 3 1 1 1 1 3 3 3 3 3 3 3 3 3 3 4 4 4 4 4 4 4 4 4 4 3 3 3 2 1
5 4 3 2 3 3 4 5 4 4 4 3 3 4 0 2 1 1 1 2 2 3 3 3 3 3 4 4 4 5 5 5 4 4 4 4 4 3 3 3 3 3 3 2
3 3 3 1 2 4 4 4 3 5 5 5 3 2 2 2 1 1 2 2 2 3 3 3 3 3 4 5 5 6 6 6 5 5 5 4 4 4 4 4 4 3 2 2
4 4 2 2 4 1 3 3 4 4 5 5 4 4 2 2 2 1 1 2 1 2 2 3 3 3 3 4 4 5 6 6 6 6 5 4 5 5 4 4 4 4 4 3
5 6 4 4 4 4 4 4 4 4 5 5 5 2 0 2 2 2 2 2 2 2 2 3 2 2 2 2 3 4 5 5 5 5 6 5 5 5 4 4 4 4 4 4
4 5 6 4 2 2 4 5 5 6 6 6 7 4 1 1 2 2 2 2 2 2 2 2 2 2 1 1 2 3 3 4 4 5 5 5 5 5 5 5 5 5 4 4
3 5 6 5 5 4 4 4 6 7 6 7 8 4 2 1 2 2 2 2 2 2 2 3 2 2 1 1 1 2 2 3 3 4 5 5 5 5 5 5 5 5 4 4
3 5 7 8 5 3 6 6 7 8 8 9 11 10 7 5 5 4 3 2 2 3 3 3 3 2 2 1 1 2 2 2 3 3 4 4 5 5 5 5 4 5 4 4
3 6 7 8 8 7 10 10 10 12 12 11 11 11 10 8 7 5 4 3 3 3 3 3 3 3 2 1 1 1 2 2 2 3 3 3 3 3 4 4 4 4 4 4
3 6 6 8 7 7 11 12 11 12 12 12 12 11 8 6 4 3 3 2 3 3 3 3 3 3 3 2 2 2 1 2 2 2 3 2 3 3 3 3 3 3 3 3
4 6 6 7 5 7 9 8 9 8 7 8 9 7 5 5 4 4 2 2 3 3 3 3 3 3 3 3 2 2 2 2 2 2 2 3 3 3 3 3 3 3 3 3
6 6 5 6 6 9 2 1 3 7 7 7 7 6 6 6 4 3 3 3 3 3 3 3 3 3 3 3 2 2 2 2 2 2 2 2 3 3 3 3 3 3 3 3
7 7 6 6 8 8 5 2 3 5 6 5 6 6 4 3 4 3 2 3 3 3 3 3 2 2 2 2 2 2 2 2 2 2 3 3 3 3 4 4 4 3 3 3
4 6 6 6 8 7 2 2 0 4 6 1 3 4 4 4 6 3 2 3 3 3 2 2 2 1 2 2 2 3 3 3 3 3 3 3 3 3 4 4 4 3 3 3
6 6 8 9 9 7 0 1 3 5 3 2 3 4 4 6 6 5 4 4 3 2 2 2 1 1 2 2 2 3 3 3 3 3 3 3 3 3 4 3 3 3 3 4
6 6 7 7 8 6 3 3 4 3 4 4 5 5 5 5 4 3 3 3 2 2 2 2 2 1 2 2 3 3 3 3 3 2 3 3 3 3 3 3 3 3 3 4
6 6 4 6 5 1 2 2 3 4 5 6 5 5 5 5 4 3 3 3 3 2 2 2 2 2 2 2 3 3 2 2 2 3 3 3 3 3 3 4 4 3 4 4
5 4 5 6 7 5 4 5 5 5 6 6 5 4 4 5 5 4 3 3 3 3 3 3 3 3 3 2 2 2 2 2 3 4 4 4 4 3 3 3 4 4 4 4
6 5 6 8 8 6 5 5 5 5 5 5 5 4 4 4 4 4 4 3 3 2 2 3 3 3 3 2 2 2 2 3 4 4 4 4 3 3 3 3 3 4 4 4
8 9 9 9 7 7 7 5 5 5 5 5 5 5 4 4 4 4 3 3 2 2 2 3 3 3 3 2 2 2 3 3 4 3 3 3 3 3 3 3 2 1 2 0
Wind_Direction
194 209 205 212 237 274 251 250 259 302 242 250 253 273 291 204 204 205 197 193 186 172 149 140 143 146 156 160 166 158 161 159 154 147 147 139 133 120 107 101 100 106 109 123
196 207 219 219 203 222 224 240 262 171 127 254 272 277 267 173 186 200 195 190 186 174 159 153 157 154 158 158 170 172 166 164 163 164 164 156 131 122 114 109 100 103 125 137
212 173 174 198 198 214 228 254 276 288 268 222 266 239 190 147 156 172 193 197 190 186 184 169 174 169 168 169 177 179 175 167 169 168 158 141 126 137 138 127 115 104 119 142
207 185 187 201 210 243 238 261 262 255 259 254 263 273 198 178 169 174 187 193 195 184 179 176 182 183 179 182 185 183 176 172 170 168 170 163 166 167 164 151 141 135 129 142
187 189 207 217 230 245 270 276 250 250 258 260 243 263 215 172 205 182 176 186 192 189 185 191 191 196 190 178 180 185 177 176 177 179 179 189 184 180 161 153 151 151 147 145
198 186 232 246 210 204 183 203 208 223 241 247 245 258 249 191 253 208 175 179 186 185 186 195 192 194 194 184 183 183 180 180 184 192 193 194 186 185 178 178 170 171 165 169
198 188 190 218 205 183 223 255 245 226 224 241 192 256 260 43 360 288 214 189 180 182 187 190 194 199 203 199 192 189 186 188 190 199 205 202 199 200 203 197 191 198 189 193
224 205 184 216 242 240 231 250 266 272 272 276 231 246 277 48 357 250 216 193 179 185 195 198 206 212 211 206 203 198 197 195 195 203 214 214 204 206 210 214 206 206 205 203
242 218 156 190 236 243 227 230 273 275 276 266 238 234 242 160 173 143 150 169 180 196 203 205 207 218 216 208 207 207 204 201 199 206 216 215 206 207 210 213 210 209 213 212
262 253 188 168 186 170 265 210 219 246 268 267 254 253 258 203 224 204 201 211 206 211 208 204 202 214 218 213 212 212 212 208 204 207 211 213 209 207 213 214 213 215 217 218
247 247 212 190 213 218 191 205 229 241 261 276 277 268 47 271 261 250 244 236 235 231 219 207 204 201 212 213 211 212 213 214 210 211 211 208 208 205 206 213 219 222 225 220
231 251 245 219 178 260 236 239 235 252 251 255 276 279 77 261 266 271 270 247 231 213 193 182 180 170 186 207 219 221 219 213 211 214 212 209 204 203 207 211 215 218 220 223
205 244 251 217 189 190 216 228 240 256 262 252 255 260 111 278 270 277 280 258 227 196 179 177 175 178 182 196 224 245 237 223 208 204 209 210 207 204 205 211 212 217 217 218
235 244 253 261 275 248 239 233 231 241 253 257 255 270 280 293 292 288 276 259 228 203 194 192 197 203 199 200 221 254 245 232 208 195 203 210 213 209 209 208 211 216 215 216
239 254 256 268 273 257 257 254 242 242 255 263 271 276 288 294 296 288 268 246 229 223 219 218 221 224 226 228 250 265 252 239 213 198 203 209 213 213 212 205 205 209 212 216
244 254 258 260 254 254 257 256 250 248 253 256 266 273 294 303 297 280 261 241 236 243 245 240 233 231 238 240 245 254 242 236 211 207 212 208 205 207 210 208 201 204 207 212
232 245 253 259 258 264 254 247 236 230 236 250 261 278 304 302 300 293 281 252 254 262 268 257 245 239 244 248 250 252 243 226 212 216 213 206 201 206 212 205 201 204 208 212
239 240 251 262 258 250 266 74 245 244 254 257 265 279 288 297 297 291 279 269 267 267 272 273 268 260 252 250 252 247 229 218 222 229 221 213 206 206 205 205 211 215 219 215
233 230 240 247 256 263 261 230 222 247 264 264 263 275 292 301 272 264 297 296 277 268 274 277 274 269 257 246 237 228 225 224 229 239 238 226 218 208 204 209 215 217 216 218
197 225 238 240 253 257 250 122 259 263 256 259 260 272 278 272 266 288 334 315 295 279 274 269 265 265 249 239 226 225 228 233 241 246 243 237 226 218 216 217 217 215 213 217
196 210 228 242 250 259 253 143 200 241 293 12 291 274 263 270 295 307 302 296 291 282 280 262 237 243 250 236 224 227 234 242 250 254 253 246 236 230 229 223 217 213 213 218
224 222 223 230 240 248 126 170 223 296 338 319 300 283 274 289 303 295 293 291 286 281 272 247 230 238 249 226 220 228 241 255 249 240 243 241 235 232 224 214 218 217 215 219
229 237 241 231 250 3 161 228 299 316 303 305 299 291 282 282 287 293 289 285 278 268 261 249 236 235 238 231 229 235 244 246 237 231 240 243 236 232 227 218 218 217 219 224
220 228 233 245 250 252 256 258 271 286 295 302 296 288 274 274 282 284 279 275 272 265 247 234 222 225 237 243 247 256 255 241 235 239 244 238 236 238 230 221 216 216 219 223
234 211 234 251 261 267 252 256 266 285 297 298 294 283 275 272 275 271 267 266 268 261 245 233 225 225 235 241 260 274 262 244 242 243 242 241 240 243 238 226 226 227 229 231
230 230 242 256 264 268 277 281 279 283 288 290 290 291 286 274 272 272 264 255 256 254 245 236 236 234 232 235 257 272 270 252 247 247 243 241 244 248 238 218 213 196 240 251
Height
1515 1514 1514 1514 1514 1515 1515 1518 1519 1519 1519 1521 1520 1520 1520 1523 1524 1525 1526 1527 1529 1531 1532 1533 1533 1534 1535 1536 1536 1537 1538 1538 1539 1539 1540 1540 1541 1541 1541 1542 1542 1542 1542 1542
1513 1514 1513 1515 1516 1516 1516 1518 1518 1519 1519 1520 1519 1518 1518 1521 1523 1524 1525 1526 1528 1530 1531 1532 1533 1533 1534 1534 1535 1536 1537 1537 1538 1538 1539 1540 1540 1541 1541 1542 1542 1542 1543 1543
1512 1513 1514 1515 1516 1516 1516 1517 1518 1520 1519 1518 1518 1517 1516 1518 1522 1524 1525 1526 1527 1529 1530 1531 1532 1533 1533 1533 1534 1535 1536 1537 1537 1538 1539 1539 1540 1540 1541 1541 1542 1542 1543 1543
1512 1514 1515 1515 1515 1515 1517 1516 1517 1519 1519 1517 1518 1521 1514 1514 1518 1521 1523 1525 1526 1527 1529 1530 1531 1532 1532 1533 1533 1534 1535 1536 1537 1537 1538 1538 1539 1540 1540 1541 1541 1542 1542 1542
1513 1514 1514 1515 1515 1515 1515 1516 1516 1517 1516 1517 1516 1519 1513 1513 1515 1517 1521 1523 1525 1526 1527 1529 1530 1530 1531 1532 1532 1533 1534 1535 1535 1536 1537 1538 1539 1539 1540 1540 1541 1541 1541 1541
1512 1514 1515 1514 1515 1516 1516 1516 1516 1515 1515 1521 1516 1519 1516 1511 1513 1515 1518 1521 1523 1525 1526 1527 1528 1529 1530 1530 1531 1531 1532 1533 1534 1535 1536 1537 1538 1538 1539 1539 1540 1540 1540 1540
1513 1513 1514 1515 1515 1515 1515 1516 1521 1522 1522 1519 1515 1518 1515 1510 1513 1515 1517 1519 1521 1523 1524 1525 1526 1527 1527 1528 1529 1530 1530 1531 1532 1533 1534 1535 1536 1537 1538 1538 1539 1539 1539 1540
1515 1516 1513 1514 1514 1514 1514 1514 1524 1529 1524 1518 1516 1517 1511 1512 1515 1516 1517 1519 1520 1521 1523 1523 1524 1525 1525 1526 1527 1528 1529 1530 1531 1531 1532 1534 1534 1535 1536 1536 1537 1538 1538 1538
1512 1514 1512 1514 1514 1513 1513 1514 1513 1518 1519 1522 1514 1512 1510 1512 1513 1515 1516 1518 1519 1520 1521 1522 1522 1523 1524 1524 1525 1526 1527 1528 1529 1530 1531 1531 1532 1533 1534 1534 1535 1536 1536 1536
1510 1514 1511 1514 1514 1515 1513 1512 1516 1519 1526 1524 1517 1514 1511 1510 1511 1512 1514 1516 1517 1519 1519 1520 1521 1521 1522 1522 1523 1524 1525 1526 1527 1527 1528 1529 1530 1531 1531 1532 1533 1533 1534 1534
1510 1512 1512 1512 1513 1513 1515 1515 1514 1515 1517 1523 1521 1515 1506 1508 1509 1511 1513 1514 1516 1517 1517 1518 1519 1519 1520 1520 1521 1522 1522 1523 1524 1525 1526 1527 1527 1528 1529 1529 1530 1531 1531 1532
1511 1510 1510 1510 1512 1513 1512 1511 1513 1519 1518 1518 1519 1517 1505 1507 1510 1511 1512 1513 1514 1515 1516 1517 1518 1518 1518 1518 1519 1519 1520 1521 1521 1522 1523 1524 1524 1525 1526 1527 1528 1528 1529 1529
1512 1511 1513 1512 1516 1515 1513 1513 1512 1512 1513 1515 1519 1514 1505 1507 1509 1511 1512 1512 1513 1514 1514 1515 1516 1516 1516 1517 1517 1517 1517 1518 1518 1519 1520 1521 1522 1522 1523 1524 1525 1526 1526 1527
1513 1509 1512 1515 1510 1509 1512 1513 1513 1513 1513 1512 1510 1508 1504 1506 1507 1509 1511 1511 1512 1512 1513 1513 1514 1514 1515 1515 1515 1515 1515 1515 1516 1516 1517 1518 1519 1519 1520 1521 1522 1523 1524 1524
1512 1509 1508 1509 1508 1510 1510 1510 1511 1511 1508 1509 1505 1505 1504 1504 1506 1508 1509 1509 1510 1511 1511 1511 1512 1512 1513 1513 1513 1513 1513 1513 1513 1514 1514 1515 1516 1516 1517 1518 1519 1520 1521 1522
1511 1509 1509 1510 1509 1510 1510 1507 1507 1508 1507 1505 1505 1504 1503 1504 1506 1506 1507 1507 1508 1509 1509 1509 1510 1510 1510 1511 1511 1511 1511 1511 1511 1511 1512 1512 1513 1513 1514 1515 1516 1517 1518 1519
1510 1509 1510 1508 1508 1509 1507 1502 1503 1504 1503 1503 1504 1503 1503 1504 1505 1505 1505 1506 1506 1507 1507 1507 1508 1508 1508 1509 1509 1509 1509 1509 1509 1509 1510 1510 1510 1511 1512 1512 1513 1514 1515 1516
1510 1509 1508 1508 1509 1512 1501 1500 1501 1502 1501 1502 1502 1502 1504 1504 1505 1504 1504 1504 1504 1505 1505 1505 1506 1506 1506 1506 1507 1507 1507 1507 1507 1507 1507 1508 1508 1508 1509 1509 1510 1511 1512 1513
1511 1510 1509 1508 1507 1503 1500 1500 1502 1502 1501 1501 1501 1502 1503 1503 1502 1501 1502 1502 1503 1503 1503 1503 1503 1503 1503 1504 1504 1505 1505 1505 1505 1505 1505 1506 1506 1506 1506 1506 1507 1508 1509 1510
1512 1509 1508 1508 1509 1505 1498 1500 1502 1503 1500 1500 1500 1501 1501 1501 1498 1498 1500 1500 1500 1501 1501 1501 1501 1501 1501 1501 1502 1502 1502 1502 1503 1503 1503 1503 1503 1503 1503 1503 1504 1505 1506 1507
1507 1508 1508 1506 1505 1497 1497 1501 1503 1504 1498 1500 1499 1500 1500 1499 1498 1499 1498 1498 1498 1498 1498 1498 1498 1498 1498 1499 1499 1499 1499 1499 1500 1500 1500 1500 1500 1500 1501 1501 1502 1502 1503 1504
1500 1502 1502 1502 1503 1500 1498 1500 1500 1498 1498 1498 1498 1498 1498 1497 1497 1496 1496 1495 1495 1495 1495 1495 1495 1495 1496 1496 1496 1496 1497 1497 1497 1497 1497 1497 1497 1497 1498 1498 1499 1499 1500 1501
1498 1497 1495 1497 1497 1496 1497 1498 1498 1499 1498 1497 1496 1496 1496 1495 1494 1494 1493 1493 1493 1492 1492 1492 1492 1493 1493 1493 1493 1494 1494 1494 1494 1494 1494 1494 1494 1494 1495 1495 1495 1496 1496 1497
1497 1499 1498 1496 1493 1495 1497 1497 1497 1497 1496 1495 1494 1493 1493 1492 1491 1491 1491 1490 1490 1490 1490 1490 1490 1490 1490 1490 1491 1491 1491 1491 1491 1491 1491 1491 1491 1491 1491 1491 1491 1492 1492 1493
1494 1496 1494 1492 1492 1494 1494 1494 1494 1494 1493 1492 1491 1491 1490 1489 1488 1488 1488 1488 1487 1487 1487 1487 1487 1487 1487 1487 1487 1488 1488 1488 1488 1488 1488 1488 1488 1487 1487 1488 1488 1488 1489 1489
1492 1491 1491 1488 1489 1490 1490 1491 1491 1491 1490 1489 1488 1487 1487 1486 1485 1485 1485 1484 1484 1484 1484 1484 1484 1484 1484 1484 1485 1485 1485 1485 1485 1485 1485 1485 1484 1484 1484 1484 1484 1484 1485 1485